Year,Month,Day,Hour,Minute,Value (Times are PST for temperature in C)
2018,08,04,00,00,15.20
2018,08,04,00,01,15.20
2018,08,04,00,02,15.20
2018,08,04,00,03,15.20
2018,08,04,00,04,15.10
2018,08,04,00,05,15.10
2018,08,04,00,06,15.10
2018,08,04,00,07,15.10
2018,08,04,00,08,15.10
2018,08,04,00,09,15.10
2018,08,04,00,10,15.10
2018,08,04,00,11,15.10
2018,08,04,00,12,15.00
2018,08,04,00,13,15.00
2018,08,04,00,14,15.00
2018,08,04,00,15,15.00
2018,08,04,00,16,14.90
2018,08,04,00,17,14.90
2018,08,04,00,18,14.90
2018,08,04,00,19,14.90
2018,08,04,00,20,14.90
2018,08,04,00,21,14.80
2018,08,04,00,22,14.80
2018,08,04,00,23,14.80
2018,08,04,00,24,14.80
2018,08,04,00,25,14.80
2018,08,04,00,26,14.80
2018,08,04,00,27,14.80
2018,08,04,00,28,14.70
2018,08,04,00,29,14.70
2018,08,04,00,30,14.70
2018,08,04,00,31,14.70
2018,08,04,00,32,14.70
2018,08,04,00,33,14.70
2018,08,04,00,34,14.70
2018,08,04,00,35,14.60
2018,08,04,00,36,14.60
2018,08,04,00,37,14.60
2018,08,04,00,38,14.60
2018,08,04,00,39,14.60
2018,08,04,00,40,14.60
2018,08,04,00,41,14.60
2018,08,04,00,42,14.50
2018,08,04,00,43,14.50
2018,08,04,00,44,14.50
2018,08,04,00,45,14.50
2018,08,04,00,46,14.50
2018,08,04,00,47,14.40
2018,08,04,00,48,14.40
2018,08,04,00,49,14.40
2018,08,04,00,50,14.40
2018,08,04,00,51,14.40
2018,08,04,00,52,14.40
2018,08,04,00,53,14.40
2018,08,04,00,54,14.40
2018,08,04,00,55,14.30
2018,08,04,00,56,14.30
2018,08,04,00,57,14.30
2018,08,04,00,58,14.30
2018,08,04,00,59,14.30
2018,08,04,01,00,14.30
2018,08,04,01,01,14.20
2018,08,04,01,02,14.20
2018,08,04,01,03,14.20
2018,08,04,01,04,14.10
2018,08,04,01,05,14.10
2018,08,04,01,06,14.10
2018,08,04,01,07,14.10
2018,08,04,01,08,14.00
2018,08,04,01,09,14.00
2018,08,04,01,10,14.00
2018,08,04,01,11,14.00
2018,08,04,01,12,13.90
2018,08,04,01,13,13.90
2018,08,04,01,14,13.90
2018,08,04,01,15,13.90
2018,08,04,01,16,13.90
2018,08,04,01,17,13.90
2018,08,04,01,18,13.80
2018,08,04,01,19,13.80
2018,08,04,01,20,13.80
2018,08,04,01,21,13.70
2018,08,04,01,22,13.70
2018,08,04,01,23,13.70
2018,08,04,01,24,13.70
2018,08,04,01,25,13.60
2018,08,04,01,26,13.60
2018,08,04,01,27,13.60
2018,08,04,01,28,13.60
2018,08,04,01,29,13.50
2018,08,04,01,30,13.50
2018,08,04,01,31,13.50
2018,08,04,01,32,13.40
2018,08,04,01,33,13.40
2018,08,04,01,34,13.40
2018,08,04,01,35,13.40
2018,08,04,01,36,13.40
2018,08,04,01,37,13.40
2018,08,04,01,38,13.30
2018,08,04,01,39,13.30
2018,08,04,01,40,13.30
2018,08,04,01,41,13.30
2018,08,04,01,42,13.30
2018,08,04,01,43,13.20
2018,08,04,01,44,13.20
2018,08,04,01,45,13.20
2018,08,04,01,46,13.20
2018,08,04,01,47,13.20
2018,08,04,01,48,13.20
2018,08,04,01,49,13.20
2018,08,04,01,50,13.20
2018,08,04,01,51,13.20
2018,08,04,01,52,13.20
2018,08,04,01,53,13.10
2018,08,04,01,54,13.10
2018,08,04,01,55,13.10
2018,08,04,01,56,13.10
2018,08,04,01,57,13.10
2018,08,04,01,58,13.10
2018,08,04,01,59,13.10
2018,08,04,02,00,13.10
2018,08,04,02,01,13.10
2018,08,04,02,02,13.10
2018,08,04,02,03,13.10
2018,08,04,02,04,13.10
2018,08,04,02,05,13.10
2018,08,04,02,06,13.10
2018,08,04,02,07,13.10
2018,08,04,02,08,13.10
2018,08,04,02,09,13.10
2018,08,04,02,10,13.10
2018,08,04,02,11,13.10
2018,08,04,02,12,13.10
2018,08,04,02,13,13.10
2018,08,04,02,14,13.10
2018,08,04,02,15,13.10
2018,08,04,02,16,13.10
2018,08,04,02,17,13.10
2018,08,04,02,18,13.10
2018,08,04,02,19,13.10
2018,08,04,02,20,13.00
2018,08,04,02,21,13.00
2018,08,04,02,22,13.00
2018,08,04,02,23,13.00
2018,08,04,02,24,13.00
2018,08,04,02,25,13.00
2018,08,04,02,26,12.90
2018,08,04,02,27,12.90
2018,08,04,02,28,12.90
2018,08,04,02,29,12.90
2018,08,04,02,30,12.90
2018,08,04,02,31,12.90
2018,08,04,02,32,12.90
2018,08,04,02,33,12.90
2018,08,04,02,34,12.90
2018,08,04,02,35,12.90
2018,08,04,02,36,12.90
2018,08,04,02,37,12.90
2018,08,04,02,38,12.90
2018,08,04,02,39,12.90
2018,08,04,02,40,12.90
2018,08,04,02,41,12.90
2018,08,04,02,42,12.90
2018,08,04,02,43,12.90
2018,08,04,02,44,12.90
2018,08,04,02,45,12.90
2018,08,04,02,46,12.80
2018,08,04,02,47,12.80
2018,08,04,02,48,12.80
2018,08,04,02,49,12.80
2018,08,04,02,50,12.80
2018,08,04,02,51,12.80
2018,08,04,02,52,12.80
2018,08,04,02,53,12.80
2018,08,04,02,54,12.80
2018,08,04,02,55,12.80
2018,08,04,02,56,12.80
2018,08,04,02,57,12.80
2018,08,04,02,58,12.80
2018,08,04,02,59,12.80
2018,08,04,03,00,12.80
2018,08,04,03,01,12.70
2018,08,04,03,02,12.70
2018,08,04,03,03,12.70
2018,08,04,03,04,12.70
2018,08,04,03,05,12.70
2018,08,04,03,06,12.70
2018,08,04,03,07,12.70
2018,08,04,03,08,12.70
2018,08,04,03,09,12.60
2018,08,04,03,10,12.60
2018,08,04,03,11,12.60
2018,08,04,03,12,12.60
2018,08,04,03,13,12.60
2018,08,04,03,14,12.60
2018,08,04,03,15,12.60
2018,08,04,03,16,12.60
2018,08,04,03,17,12.60
2018,08,04,03,18,12.60
2018,08,04,03,19,12.60
2018,08,04,03,20,12.60
2018,08,04,03,21,12.60
2018,08,04,03,22,12.60
2018,08,04,03,23,12.60
2018,08,04,03,24,12.50
2018,08,04,03,25,12.50
2018,08,04,03,26,12.50
2018,08,04,03,27,12.50
2018,08,04,03,28,12.50
2018,08,04,03,29,12.50
2018,08,04,03,30,12.40
2018,08,04,03,31,12.40
2018,08,04,03,32,12.40
2018,08,04,03,33,12.40
2018,08,04,03,34,12.40
2018,08,04,03,35,12.40
2018,08,04,03,36,12.40
2018,08,04,03,37,12.40
2018,08,04,03,38,12.40
2018,08,04,03,39,12.40
2018,08,04,03,40,12.40
2018,08,04,03,41,12.40
2018,08,04,03,42,12.40
2018,08,04,03,43,12.40
2018,08,04,03,44,12.40
2018,08,04,03,45,12.40
2018,08,04,03,46,12.40
2018,08,04,03,47,12.40
2018,08,04,03,48,12.40
2018,08,04,03,49,12.40
2018,08,04,03,50,12.40
2018,08,04,03,51,12.40
2018,08,04,03,52,12.40
2018,08,04,03,53,12.40
2018,08,04,03,54,12.30
2018,08,04,03,55,12.30
2018,08,04,03,56,12.30
2018,08,04,03,57,12.30
2018,08,04,03,58,12.30
2018,08,04,03,59,12.30
2018,08,04,04,00,12.30
2018,08,04,04,01,12.30
2018,08,04,04,02,12.30
2018,08,04,04,03,12.30
2018,08,04,04,04,12.30
2018,08,04,04,05,12.30
2018,08,04,04,06,12.30
2018,08,04,04,07,12.30
2018,08,04,04,08,12.30
2018,08,04,04,09,12.30
2018,08,04,04,10,12.30
2018,08,04,04,11,12.30
2018,08,04,04,12,12.30
2018,08,04,04,13,12.30
2018,08,04,04,14,12.30
2018,08,04,04,15,12.30
2018,08,04,04,16,12.30
2018,08,04,04,17,12.30
2018,08,04,04,18,12.30
2018,08,04,04,19,12.30
2018,08,04,04,20,12.30
2018,08,04,04,21,12.30
2018,08,04,04,22,12.30
2018,08,04,04,23,12.30
2018,08,04,04,24,12.30
2018,08,04,04,25,12.30
2018,08,04,04,26,12.20
2018,08,04,04,27,12.20
2018,08,04,04,28,12.20
2018,08,04,04,29,12.20
2018,08,04,04,30,12.20
2018,08,04,04,31,12.20
2018,08,04,04,32,12.20
2018,08,04,04,33,12.20
2018,08,04,04,34,12.20
2018,08,04,04,35,12.20
2018,08,04,04,36,12.20
2018,08,04,04,37,12.20
2018,08,04,04,38,12.20
2018,08,04,04,39,12.20
2018,08,04,04,40,12.20
2018,08,04,04,41,12.20
2018,08,04,04,42,12.20
2018,08,04,04,43,12.20
2018,08,04,04,44,12.20
2018,08,04,04,45,12.20
2018,08,04,04,46,12.20
2018,08,04,04,47,12.20
2018,08,04,04,48,12.20
2018,08,04,04,49,12.20
2018,08,04,04,50,12.20
2018,08,04,04,51,12.20
2018,08,04,04,52,12.20
2018,08,04,04,53,12.10
2018,08,04,04,54,12.10
2018,08,04,04,55,12.10
2018,08,04,04,56,12.10
2018,08,04,04,57,12.10
2018,08,04,04,58,12.10
2018,08,04,04,59,12.10
2018,08,04,05,00,12.10
2018,08,04,05,01,12.00
2018,08,04,05,02,12.00
2018,08,04,05,03,12.00
2018,08,04,05,04,12.00
2018,08,04,05,05,12.00
2018,08,04,05,06,12.00
2018,08,04,05,07,12.00
2018,08,04,05,08,12.00
2018,08,04,05,09,12.00
2018,08,04,05,10,12.00
2018,08,04,05,11,12.00
2018,08,04,05,12,12.00
2018,08,04,05,13,12.00
2018,08,04,05,14,12.00
2018,08,04,05,15,11.90
2018,08,04,05,16,11.90
2018,08,04,05,17,11.90
2018,08,04,05,18,11.90
2018,08,04,05,19,11.90
2018,08,04,05,20,11.90
2018,08,04,05,21,11.90
2018,08,04,05,22,11.90
2018,08,04,05,23,11.90
2018,08,04,05,24,11.90
2018,08,04,05,25,11.90
2018,08,04,05,26,11.90
2018,08,04,05,27,11.90
2018,08,04,05,28,11.90
2018,08,04,05,29,11.90
2018,08,04,05,30,11.90
2018,08,04,05,31,11.90
2018,08,04,05,32,11.90
2018,08,04,05,33,11.90
2018,08,04,05,34,11.90
2018,08,04,05,35,11.90
2018,08,04,05,36,11.90
2018,08,04,05,37,11.90
2018,08,04,05,38,11.90
2018,08,04,05,39,12.00
2018,08,04,05,40,12.00
2018,08,04,05,41,12.00
2018,08,04,05,42,12.10
2018,08,04,05,43,12.10
2018,08,04,05,44,12.10
2018,08,04,05,45,12.10
2018,08,04,05,46,12.10
2018,08,04,05,47,12.10
2018,08,04,05,48,12.10
2018,08,04,05,49,12.10
2018,08,04,05,50,12.10
2018,08,04,05,51,12.10
2018,08,04,05,52,12.10
2018,08,04,05,53,12.10
2018,08,04,05,54,12.10
2018,08,04,05,55,12.00
2018,08,04,05,56,12.00
2018,08,04,05,57,12.00
2018,08,04,05,58,12.00
2018,08,04,05,59,12.00
2018,08,04,06,00,12.00
2018,08,04,06,01,12.00
2018,08,04,06,02,12.00
2018,08,04,06,03,12.00
2018,08,04,06,04,12.00
2018,08,04,06,05,12.00
2018,08,04,06,06,12.00
2018,08,04,06,07,12.00
2018,08,04,06,08,12.00
2018,08,04,06,09,12.00
2018,08,04,06,10,12.00
2018,08,04,06,11,12.00
2018,08,04,06,12,12.00
2018,08,04,06,13,12.00
2018,08,04,06,14,12.00
2018,08,04,06,15,12.00
2018,08,04,06,16,12.00
2018,08,04,06,17,12.10
2018,08,04,06,18,12.00
2018,08,04,06,19,12.10
2018,08,04,06,20,12.10
2018,08,04,06,21,12.10
2018,08,04,06,22,12.10
2018,08,04,06,23,12.10
2018,08,04,06,24,12.10
2018,08,04,06,25,12.10
2018,08,04,06,26,12.10
2018,08,04,06,27,12.10
2018,08,04,06,28,12.10
2018,08,04,06,29,12.10
2018,08,04,06,30,12.10
2018,08,04,06,31,12.10
2018,08,04,06,32,12.10
2018,08,04,06,33,12.10
2018,08,04,06,34,12.10
2018,08,04,06,35,12.20
2018,08,04,06,36,12.20
2018,08,04,06,37,12.20
2018,08,04,06,38,12.20
2018,08,04,06,39,12.20
2018,08,04,06,40,12.20
2018,08,04,06,41,12.20
2018,08,04,06,42,12.30
2018,08,04,06,43,12.20
2018,08,04,06,44,12.30
2018,08,04,06,45,12.30
2018,08,04,06,46,12.30
2018,08,04,06,47,12.30
2018,08,04,06,48,12.30
2018,08,04,06,49,12.30
2018,08,04,06,50,12.40
2018,08,04,06,51,12.40
2018,08,04,06,52,12.40
2018,08,04,06,53,12.40
2018,08,04,06,54,12.40
2018,08,04,06,55,12.40
2018,08,04,06,56,12.40
2018,08,04,06,57,12.50
2018,08,04,06,58,12.40
2018,08,04,06,59,12.50
2018,08,04,07,00,12.50
2018,08,04,07,01,12.40
2018,08,04,07,02,12.50
2018,08,04,07,03,12.50
2018,08,04,07,04,12.50
2018,08,04,07,05,12.50
2018,08,04,07,06,12.50
2018,08,04,07,07,12.50
2018,08,04,07,08,12.50
2018,08,04,07,09,12.50
2018,08,04,07,10,12.50
2018,08,04,07,11,12.50
2018,08,04,07,12,12.50
2018,08,04,07,13,12.50
2018,08,04,07,14,12.50
2018,08,04,07,15,12.60
2018,08,04,07,16,12.60
2018,08,04,07,17,12.60
2018,08,04,07,18,12.60
2018,08,04,07,19,12.60
2018,08,04,07,20,12.60
2018,08,04,07,21,12.60
2018,08,04,07,22,12.70
2018,08,04,07,23,12.70
2018,08,04,07,24,12.70
2018,08,04,07,25,12.70
2018,08,04,07,26,12.70
2018,08,04,07,27,12.70
2018,08,04,07,28,12.70
2018,08,04,07,29,12.70
2018,08,04,07,30,12.70
2018,08,04,07,31,12.70
2018,08,04,07,32,12.70
2018,08,04,07,33,12.80
2018,08,04,07,34,12.80
2018,08,04,07,35,12.80
2018,08,04,07,36,12.80
2018,08,04,07,37,12.80
2018,08,04,07,38,12.80
2018,08,04,07,39,12.80
2018,08,04,07,40,12.80
2018,08,04,07,41,12.80
2018,08,04,07,42,12.80
2018,08,04,07,43,12.80
2018,08,04,07,44,12.80
2018,08,04,07,45,12.80
2018,08,04,07,46,12.80
2018,08,04,07,47,12.90
2018,08,04,07,48,12.90
2018,08,04,07,49,12.90
2018,08,04,07,50,12.90
2018,08,04,07,51,12.90
2018,08,04,07,52,13.00
2018,08,04,07,53,13.00
2018,08,04,07,54,13.00
2018,08,04,07,55,13.10
2018,08,04,07,56,13.10
2018,08,04,07,57,13.10
2018,08,04,07,58,13.20
2018,08,04,07,59,13.20
2018,08,04,08,00,13.20
2018,08,04,08,01,13.30
2018,08,04,08,02,13.30
2018,08,04,08,03,13.30
2018,08,04,08,04,13.30
2018,08,04,08,05,13.30
2018,08,04,08,06,13.40
2018,08,04,08,07,13.40
2018,08,04,08,08,13.40
2018,08,04,08,09,13.50
2018,08,04,08,10,13.50
2018,08,04,08,11,13.50
2018,08,04,08,12,13.60
2018,08,04,08,13,13.60
2018,08,04,08,14,13.60
2018,08,04,08,15,13.60
2018,08,04,08,16,13.60
2018,08,04,08,17,13.70
2018,08,04,08,18,13.70
2018,08,04,08,19,13.80
2018,08,04,08,20,13.80
2018,08,04,08,21,13.80
2018,08,04,08,22,13.90
2018,08,04,08,23,13.90
2018,08,04,08,24,13.90
2018,08,04,08,25,14.00
2018,08,04,08,26,14.00
2018,08,04,08,27,14.00
2018,08,04,08,28,14.10
2018,08,04,08,29,14.10
2018,08,04,08,30,14.10
2018,08,04,08,31,14.20
2018,08,04,08,32,14.20
2018,08,04,08,33,14.20
2018,08,04,08,34,14.30
2018,08,04,08,35,14.30
2018,08,04,08,36,14.30
2018,08,04,08,37,14.30
2018,08,04,08,38,14.30
2018,08,04,08,39,14.40
2018,08,04,08,40,14.40
2018,08,04,08,41,14.40
2018,08,04,08,42,14.40
2018,08,04,08,43,14.50
2018,08,04,08,44,14.50
2018,08,04,08,45,14.50
2018,08,04,08,46,14.50
2018,08,04,08,47,14.60
2018,08,04,08,48,14.60
2018,08,04,08,49,14.60
2018,08,04,08,50,14.60
2018,08,04,08,51,14.60
2018,08,04,08,52,14.60
2018,08,04,08,53,14.70
2018,08,04,08,54,14.70
2018,08,04,08,55,14.70
2018,08,04,08,56,14.70
2018,08,04,08,57,14.70
2018,08,04,08,58,14.70
2018,08,04,08,59,14.70
2018,08,04,09,00,14.80
2018,08,04,09,01,14.80
2018,08,04,09,02,14.80
2018,08,04,09,03,14.80
2018,08,04,09,04,14.80
2018,08,04,09,05,14.90
2018,08,04,09,06,14.90
2018,08,04,09,07,14.90
2018,08,04,09,08,15.00
2018,08,04,09,09,15.00
2018,08,04,09,10,15.00
2018,08,04,09,11,15.00
2018,08,04,09,12,15.10
2018,08,04,09,13,15.10
2018,08,04,09,14,15.10
2018,08,04,09,15,15.10
2018,08,04,09,16,15.10
2018,08,04,09,17,15.10
2018,08,04,09,18,15.10
2018,08,04,09,19,15.10
2018,08,04,09,20,15.20
2018,08,04,09,21,15.20
2018,08,04,09,22,15.20
2018,08,04,09,23,15.20
2018,08,04,09,24,15.20
2018,08,04,09,25,15.30
2018,08,04,09,26,15.30
2018,08,04,09,27,15.30
2018,08,04,09,28,15.30
2018,08,04,09,29,15.40
2018,08,04,09,30,15.40
2018,08,04,09,31,15.40
2018,08,04,09,32,15.50
2018,08,04,09,33,15.50
2018,08,04,09,34,15.60
2018,08,04,09,35,15.70
2018,08,04,09,36,15.80
2018,08,04,09,37,15.80
2018,08,04,09,38,15.90
2018,08,04,09,39,16.00
2018,08,04,09,40,16.10
2018,08,04,09,41,16.20
2018,08,04,09,42,16.30
2018,08,04,09,43,16.40
2018,08,04,09,44,16.40
2018,08,04,09,45,16.50
2018,08,04,09,46,16.60
2018,08,04,09,47,16.70
2018,08,04,09,48,16.80
2018,08,04,09,49,17.00
2018,08,04,09,50,17.00
2018,08,04,09,51,17.10
2018,08,04,09,52,17.20
2018,08,04,09,53,17.30
2018,08,04,09,54,17.30
2018,08,04,09,55,17.40
2018,08,04,09,56,17.50
2018,08,04,09,57,17.50
2018,08,04,09,58,17.60
2018,08,04,09,59,17.70
2018,08,04,10,00,17.80
2018,08,04,10,01,17.80
2018,08,04,10,02,17.90
2018,08,04,10,03,18.00
2018,08,04,10,04,18.10
2018,08,04,10,05,18.20
2018,08,04,10,06,18.30
2018,08,04,10,07,18.40
2018,08,04,10,08,18.60
2018,08,04,10,09,18.70
2018,08,04,10,10,18.80
2018,08,04,10,11,18.90
2018,08,04,10,12,19.00
2018,08,04,10,13,19.10
2018,08,04,10,14,19.20
2018,08,04,10,15,19.20
2018,08,04,10,16,19.40
2018,08,04,10,17,19.50
2018,08,04,10,18,19.60
2018,08,04,10,19,19.70
2018,08,04,10,20,19.80
2018,08,04,10,21,19.90
2018,08,04,10,22,20.00
2018,08,04,10,23,20.00
2018,08,04,10,24,20.10
2018,08,04,10,25,20.20
2018,08,04,10,26,20.20
2018,08,04,10,27,20.30
2018,08,04,10,28,20.40
2018,08,04,10,29,20.50
2018,08,04,10,30,20.60
2018,08,04,10,31,20.60
2018,08,04,10,32,20.70
2018,08,04,10,33,20.80
2018,08,04,10,34,20.80
2018,08,04,10,35,20.90
2018,08,04,10,36,20.90
2018,08,04,10,37,20.90
2018,08,04,10,38,21.00
2018,08,04,10,39,21.00
2018,08,04,10,40,21.00
2018,08,04,10,41,21.00
2018,08,04,10,42,21.00
2018,08,04,10,43,21.10
2018,08,04,10,44,21.20
2018,08,04,10,45,21.20
2018,08,04,10,46,21.30
2018,08,04,10,47,21.30
2018,08,04,10,48,21.40
2018,08,04,10,49,21.50
2018,08,04,10,50,21.60
2018,08,04,10,51,21.70
2018,08,04,10,52,21.80
2018,08,04,10,53,21.90
2018,08,04,10,54,21.90
2018,08,04,10,55,22.00
2018,08,04,10,56,22.10
2018,08,04,10,57,22.20
2018,08,04,10,58,22.20
2018,08,04,10,59,22.30
2018,08,04,11,00,22.30
2018,08,04,11,01,22.30
2018,08,04,11,02,22.30
2018,08,04,11,03,22.30
2018,08,04,11,04,22.30
2018,08,04,11,05,22.30
2018,08,04,11,06,22.30
2018,08,04,11,07,22.30
2018,08,04,11,08,22.30
2018,08,04,11,09,22.20
2018,08,04,11,10,22.20
2018,08,04,11,11,22.20
2018,08,04,11,12,22.20
2018,08,04,11,13,22.30
2018,08,04,11,14,22.40
2018,08,04,11,15,22.40
2018,08,04,11,16,22.40
2018,08,04,11,17,22.40
2018,08,04,11,18,22.50
2018,08,04,11,19,22.50
2018,08,04,11,20,22.50
2018,08,04,11,21,22.40
2018,08,04,11,22,22.40
2018,08,04,11,23,22.30
2018,08,04,11,24,22.30
2018,08,04,11,25,22.30
2018,08,04,11,26,22.30
2018,08,04,11,27,22.30
2018,08,04,11,28,22.30
2018,08,04,11,29,22.40
2018,08,04,11,30,22.50
2018,08,04,11,31,22.60
2018,08,04,11,32,22.70
2018,08,04,11,33,22.80
2018,08,04,11,34,22.80
2018,08,04,11,35,22.80
2018,08,04,11,36,22.90
2018,08,04,11,37,22.90
2018,08,04,11,38,23.00
2018,08,04,11,39,23.00
2018,08,04,11,40,23.10
2018,08,04,11,41,23.10
2018,08,04,11,42,23.20
2018,08,04,11,43,23.20
2018,08,04,11,44,23.30
2018,08,04,11,45,23.30
2018,08,04,11,46,23.40
2018,08,04,11,47,23.40
2018,08,04,11,48,23.40
2018,08,04,11,49,23.40
2018,08,04,11,50,23.30
2018,08,04,11,51,23.30
2018,08,04,11,52,23.20
2018,08,04,11,53,23.20
2018,08,04,11,54,23.20
2018,08,04,11,55,23.20
2018,08,04,11,56,23.20
2018,08,04,11,57,23.20
2018,08,04,11,58,23.20
2018,08,04,11,59,23.20
2018,08,04,12,00,23.20
2018,08,04,12,01,23.10
2018,08,04,12,02,23.10
2018,08,04,12,03,23.10
2018,08,04,12,04,23.10
2018,08,04,12,05,23.20
2018,08,04,12,06,23.20
2018,08,04,12,07,23.30
2018,08,04,12,08,23.30
2018,08,04,12,09,23.30
2018,08,04,12,10,23.30
2018,08,04,12,11,23.40
2018,08,04,12,12,23.40
2018,08,04,12,13,23.40
2018,08,04,12,14,23.50
2018,08,04,12,15,23.50
2018,08,04,12,16,23.50
2018,08,04,12,17,23.50
2018,08,04,12,18,23.50
2018,08,04,12,19,23.40
2018,08,04,12,20,23.40
2018,08,04,12,21,23.40
2018,08,04,12,22,23.40
2018,08,04,12,23,23.30
2018,08,04,12,24,23.30
2018,08,04,12,25,23.20
2018,08,04,12,26,23.20
2018,08,04,12,27,23.30
2018,08,04,12,28,23.30
2018,08,04,12,29,23.30
2018,08,04,12,30,23.30
2018,08,04,12,31,23.40
2018,08,04,12,32,23.40
2018,08,04,12,33,23.40
2018,08,04,12,34,23.50
2018,08,04,12,35,23.50
2018,08,04,12,36,23.60
2018,08,04,12,37,23.60
2018,08,04,12,38,23.60
2018,08,04,12,39,23.60
2018,08,04,12,40,23.50
2018,08,04,12,41,23.50
2018,08,04,12,42,23.50
2018,08,04,12,43,23.50
2018,08,04,12,44,23.40
2018,08,04,12,45,23.40
2018,08,04,12,46,23.50
2018,08,04,12,47,23.50
2018,08,04,12,48,23.60
2018,08,04,12,49,23.60
2018,08,04,12,50,23.70
2018,08,04,12,51,23.70
2018,08,04,12,52,23.70
2018,08,04,12,53,23.70
2018,08,04,12,54,23.70
2018,08,04,12,55,23.70
2018,08,04,12,56,23.70
2018,08,04,12,57,23.70
2018,08,04,12,58,23.70
2018,08,04,12,59,23.70
2018,08,04,13,00,23.70
2018,08,04,13,01,23.70
2018,08,04,13,02,23.70
2018,08,04,13,03,23.80
2018,08,04,13,04,23.80
2018,08,04,13,05,23.90
2018,08,04,13,06,23.90
2018,08,04,13,07,23.80
2018,08,04,13,08,23.70
2018,08,04,13,09,23.50
2018,08,04,13,10,23.30
2018,08,04,13,11,23.10
2018,08,04,13,12,22.90
2018,08,04,13,13,22.70
2018,08,04,13,14,22.50
2018,08,04,13,15,22.30
2018,08,04,13,16,22.20
2018,08,04,13,17,22.10
2018,08,04,13,18,22.10
2018,08,04,13,19,22.00
2018,08,04,13,20,22.10
2018,08,04,13,21,22.10
2018,08,04,13,22,22.20
2018,08,04,13,23,22.30
2018,08,04,13,24,22.50
2018,08,04,13,25,22.60
2018,08,04,13,26,22.50
2018,08,04,13,27,22.50
2018,08,04,13,28,22.40
2018,08,04,13,29,22.40
2018,08,04,13,30,22.40
2018,08,04,13,31,22.40
2018,08,04,13,32,22.50
2018,08,04,13,33,22.60
2018,08,04,13,34,22.60
2018,08,04,13,35,22.60
2018,08,04,13,36,22.50
2018,08,04,13,37,22.40
2018,08,04,13,38,22.40
2018,08,04,13,39,22.50
2018,08,04,13,40,22.60
2018,08,04,13,41,22.70
2018,08,04,13,42,22.70
2018,08,04,13,43,22.70
2018,08,04,13,44,22.70
2018,08,04,13,45,22.70
2018,08,04,13,46,22.80
2018,08,04,13,47,22.80
2018,08,04,13,48,22.80
2018,08,04,13,49,22.90
2018,08,04,13,50,23.00
2018,08,04,13,51,23.00
2018,08,04,13,52,23.10
2018,08,04,13,53,23.10
2018,08,04,13,54,23.20
2018,08,04,13,55,23.20
2018,08,04,13,56,23.30
2018,08,04,13,57,23.40
2018,08,04,13,58,23.50
2018,08,04,13,59,23.60
2018,08,04,14,00,23.60
2018,08,04,14,01,23.70
2018,08,04,14,02,23.80
2018,08,04,14,03,23.90
2018,08,04,14,04,23.90
2018,08,04,14,05,24.00
2018,08,04,14,06,24.10
2018,08,04,14,07,24.20
2018,08,04,14,08,24.30
2018,08,04,14,09,24.30
2018,08,04,14,10,24.30
2018,08,04,14,11,24.20
2018,08,04,14,12,24.00
2018,08,04,14,13,23.90
2018,08,04,14,14,23.80
2018,08,04,14,15,23.60
2018,08,04,14,16,23.60
2018,08,04,14,17,23.60
2018,08,04,14,18,23.50
2018,08,04,14,19,23.50
2018,08,04,14,20,23.50
2018,08,04,14,21,23.60
2018,08,04,14,22,23.60
2018,08,04,14,23,23.70
2018,08,04,14,24,23.80
2018,08,04,14,25,23.90
2018,08,04,14,26,24.00
2018,08,04,14,27,24.10
2018,08,04,14,28,24.20
2018,08,04,14,29,24.20
2018,08,04,14,30,24.20
2018,08,04,14,31,24.20
2018,08,04,14,32,24.10
2018,08,04,14,33,24.00
2018,08,04,14,34,23.80
2018,08,04,14,35,23.70
2018,08,04,14,36,23.50
2018,08,04,14,37,23.50
2018,08,04,14,38,23.40
2018,08,04,14,39,23.40
2018,08,04,14,40,23.40
2018,08,04,14,41,23.50
2018,08,04,14,42,23.50
2018,08,04,14,43,23.50
2018,08,04,14,44,23.50
2018,08,04,14,45,23.60
2018,08,04,14,46,23.70
2018,08,04,14,47,23.70
2018,08,04,14,48,23.80
2018,08,04,14,49,23.80
2018,08,04,14,50,23.90
2018,08,04,14,51,24.00
2018,08,04,14,52,24.10
2018,08,04,14,53,24.10
2018,08,04,14,54,24.20
2018,08,04,14,55,24.20
2018,08,04,14,56,24.30
2018,08,04,14,57,24.30
2018,08,04,14,58,24.30
2018,08,04,14,59,24.30
2018,08,04,15,00,24.40
2018,08,04,15,01,24.50
2018,08,04,15,02,24.50
2018,08,04,15,03,24.50
2018,08,04,15,04,24.40
2018,08,04,15,05,24.40
2018,08,04,15,06,24.30
2018,08,04,15,07,24.30
2018,08,04,15,08,24.30
2018,08,04,15,09,24.20
2018,08,04,15,10,24.20
2018,08,04,15,11,24.10
2018,08,04,15,12,24.10
2018,08,04,15,13,24.10
2018,08,04,15,14,24.00
2018,08,04,15,15,24.00
2018,08,04,15,16,24.00
2018,08,04,15,17,24.10
2018,08,04,15,18,24.10
2018,08,04,15,19,24.10
2018,08,04,15,20,24.10
2018,08,04,15,21,24.10
2018,08,04,15,22,24.10
2018,08,04,15,23,24.10
2018,08,04,15,24,24.10
2018,08,04,15,25,24.00
2018,08,04,15,26,24.00
2018,08,04,15,27,23.90
2018,08,04,15,28,23.90
2018,08,04,15,29,23.90
2018,08,04,15,30,23.90
2018,08,04,15,31,24.00
2018,08,04,15,32,24.10
2018,08,04,15,33,24.10
2018,08,04,15,34,24.20
2018,08,04,15,35,24.20
2018,08,04,15,36,24.20
2018,08,04,15,37,24.30
2018,08,04,15,38,24.30
2018,08,04,15,39,24.20
2018,08,04,15,40,24.20
2018,08,04,15,41,24.20
2018,08,04,15,42,24.20
2018,08,04,15,43,24.20
2018,08,04,15,44,24.10
2018,08,04,15,45,24.10
2018,08,04,15,46,24.10
2018,08,04,15,47,24.10
2018,08,04,15,48,24.00
2018,08,04,15,49,24.00
2018,08,04,15,50,23.80
2018,08,04,15,51,23.80
2018,08,04,15,52,23.70
2018,08,04,15,53,23.70
2018,08,04,15,54,23.70
2018,08,04,15,55,23.60
2018,08,04,15,56,23.60
2018,08,04,15,57,23.60
2018,08,04,15,58,23.60
2018,08,04,15,59,23.50
2018,08,04,16,00,23.50
2018,08,04,16,01,23.50
2018,08,04,16,02,23.50
2018,08,04,16,03,23.60
2018,08,04,16,04,23.60
2018,08,04,16,05,23.60
2018,08,04,16,06,23.60
2018,08,04,16,07,23.70
2018,08,04,16,08,23.80
2018,08,04,16,09,23.80
2018,08,04,16,10,23.90
2018,08,04,16,11,24.00
2018,08,04,16,12,24.10
2018,08,04,16,13,24.20
2018,08,04,16,14,24.30
2018,08,04,16,15,24.40
2018,08,04,16,16,24.50
2018,08,04,16,17,24.60
2018,08,04,16,18,24.60
2018,08,04,16,19,24.50
2018,08,04,16,20,24.50
2018,08,04,16,21,24.40
2018,08,04,16,22,24.40
2018,08,04,16,23,24.40
2018,08,04,16,24,24.40
2018,08,04,16,25,24.40
2018,08,04,16,26,24.40
2018,08,04,16,27,24.50
2018,08,04,16,28,24.40
2018,08,04,16,29,24.30
2018,08,04,16,30,24.20
2018,08,04,16,31,24.10
2018,08,04,16,32,24.10
2018,08,04,16,33,24.00
2018,08,04,16,34,24.00
2018,08,04,16,35,24.00
2018,08,04,16,36,24.00
2018,08,04,16,37,24.10
2018,08,04,16,38,24.10
2018,08,04,16,39,24.10
2018,08,04,16,40,24.20
2018,08,04,16,41,24.20
2018,08,04,16,42,24.20
2018,08,04,16,43,24.20
2018,08,04,16,44,24.20
2018,08,04,16,45,24.20
2018,08,04,16,46,24.30
2018,08,04,16,47,24.40
2018,08,04,16,48,24.40
2018,08,04,16,49,24.40
2018,08,04,16,50,24.40
2018,08,04,16,51,24.40
2018,08,04,16,52,24.40
2018,08,04,16,53,24.40
2018,08,04,16,54,24.40
2018,08,04,16,55,24.50
2018,08,04,16,56,24.50
2018,08,04,16,57,24.50
2018,08,04,16,58,24.50
2018,08,04,16,59,24.60
2018,08,04,17,00,24.60
2018,08,04,17,01,24.70
2018,08,04,17,02,24.70
2018,08,04,17,03,24.80
2018,08,04,17,04,24.90
2018,08,04,17,05,24.90
2018,08,04,17,06,24.90
2018,08,04,17,07,24.90
2018,08,04,17,08,24.90
2018,08,04,17,09,24.90
2018,08,04,17,10,24.80
2018,08,04,17,11,24.80
2018,08,04,17,12,24.70
2018,08,04,17,13,24.50
2018,08,04,17,14,24.40
2018,08,04,17,15,24.40
2018,08,04,17,16,24.40
2018,08,04,17,17,24.30
2018,08,04,17,18,24.30
2018,08,04,17,19,24.30